When you browse on this site, cookies collect data to enhance your experience and personalize the content and advertising you see.
Visit our Privacy Policy to learn more. By continuing to use the site, you agree to this use of cookies and data.
  • In Latvia
  • List of Countries
  • For 7 days
  • Water Temperature
  • Weather Map
  • Weather Widgets
  • user-avatar
    Login

    Hourly Weather Aglona

    Today, 30 May, Saturday

    Time Temperature Precipitation Wind Pressure Humidity
    00:00 +8°C° 0 mm 4 mps 750 mmHg 61%
    01:00 +8°C° 0 mm 4 mps 750 mmHg 64%
    02:00 +8°C° 0 mm 4 mps 750 mmHg 67%
    03:00 +8°C° 0 mm 4 mps 750 mmHg 65%
    04:00 +8°C° 0 mm 4 mps 749 mmHg 64%
    05:00 +8°C° 0 mm 5 mps 749 mmHg 62%
    06:00 +9°C° 0 mm 5 mps 749 mmHg 59%
    07:00 +11°C° 0 mm 6 mps 749 mmHg 56%
    08:00 +13°C° 0 mm 6 mps 749 mmHg 54%
    09:00 +14°C° 0 mm 6 mps 749 mmHg 54%
    10:00 +15°C° 0 mm 7 mps 748 mmHg 54%
    11:00 +17°C° 0 mm 7 mps 748 mmHg 54%
    12:00 +17°C° 0 mm 7 mps 748 mmHg 53%
    13:00 +18°C° 0 mm 7 mps 747 mmHg 52%
    14:00 +20°C° 0 mm 7 mps 747 mmHg 51%
    15:00 +20°C° 0 mm 7 mps 747 mmHg 52%
    16:00 +18°C° 0 mm 7 mps 746 mmHg 53%
    17:00 +18°C° 0 mm 7 mps 746 mmHg 53%
    18:00 +17°C° 0 mm 7 mps 746 mmHg 55%
    19:00 +16°C° 0 mm 6 mps 746 mmHg 57%
    20:00 +15°C° 0 mm 6 mps 746 mmHg 59%
    21:00 +14°C° 0 mm 6 mps 746 mmHg 59%
    22:00 +14°C° 0 mm 7 mps 746 mmHg 60%
    23:00 +12°C° 0 mm 7 mps 746 mmHg 60%

    Tomorrow, 31 May, Sunday

    Time Temperature Precipitation Wind Pressure Humidity
    00:00 +12°C° 0 mm 7 mps 746 mmHg 61%
    01:00 +11°C° 0 mm 7 mps 746 mmHg 62%
    02:00 +11°C° 0 mm 7 mps 746 mmHg 62%
    03:00 +10°C° 0 mm 7 mps 746 mmHg 64%
    04:00 +10°C° 0 mm 7 mps 747 mmHg 66%
    05:00 +9°C° 0 mm 7 mps 747 mmHg 67%
    06:00 +10°C° 0 mm 7 mps 747 mmHg 64%
    07:00 +12°C° 0 mm 7 mps 747 mmHg 61%
    08:00 +13°C° 0 mm 8 mps 747 mmHg 58%
    09:00 +15°C° 0 mm 8 mps 748 mmHg 55%
    10:00 +16°C° 0 mm 8 mps 748 mmHg 52%
    11:00 +17°C° 0 mm 8 mps 748 mmHg 48%
    12:00 +17°C° 0 mm 8 mps 748 mmHg 47%
    13:00 +17°C° 0 mm 8 mps 748 mmHg 45%
    14:00 +17°C° 0 mm 8 mps 748 mmHg 43%
    15:00 +17°C° 0 mm 7 mps 748 mmHg 44%
    16:00 +17°C° 0 mm 7 mps 749 mmHg 45%
    17:00 +16°C° 0 mm 7 mps 749 mmHg 46%
    18:00 +15°C° 0 mm 6 mps 749 mmHg 51%
    19:00 +13°C° 0 mm 5 mps 750 mmHg 56%
    20:00 +12°C° 0 mm 4 mps 750 mmHg 61%
    21:00 +11°C° 0 mm 4 mps 750 mmHg 61%
    22:00 +10°C° 0 mm 4 mps 751 mmHg 61%
    23:00 +8°C° 0 mm 5 mps 751 mmHg 62%

    Day after tomorrow, 1 June, Monday

    Time Temperature Precipitation Wind Pressure Humidity
    00:00 +7°C° 0 mm 4 mps 751 mmHg 63%
    01:00 +6°C° 0 mm 4 mps 752 mmHg 65%
    02:00 +5°C° 0 mm 4 mps 752 mmHg 67%
    03:00 +5°C° 0 mm 4 mps 752 mmHg 68%
    04:00 +5°C° 0 mm 4 mps 752 mmHg 69%
    05:00 +4°C° 0 mm 3 mps 752 mmHg 69%
    06:00 +6°C° 0 mm 4 mps 752 mmHg 64%
    07:00 +8°C° 0 mm 5 mps 752 mmHg 58%
    08:00 +9°C° 0 mm 5 mps 752 mmHg 53%
    09:00 +10°C° 0 mm 6 mps 752 mmHg 50%
    10:00 +13°C° 0 mm 6 mps 752 mmHg 48%
    11:00 +14°C° 0 mm 6 mps 751 mmHg 46%
    12:00 +14°C° 0 mm 6 mps 751 mmHg 49%
    13:00 +14°C° 0 mm 6 mps 751 mmHg 51%
    14:00 +14°C° 0 mm 5 mps 750 mmHg 54%
    15:00 +13°C° 0.1 mm 5 mps 750 mmHg 57%
    16:00 +13°C° 0.1 mm 5 mps 750 mmHg 61%
    17:00 +13°C° 0.1 mm 5 mps 750 mmHg 64%
    18:00 +12°C° 0 mm 5 mps 750 mmHg 65%
    19:00 +11°C° 0 mm 4 mps 750 mmHg 67%
    20:00 +10°C° 0 mm 3 mps 750 mmHg 68%
    21:00 +9°C° 0 mm 3 mps 750 mmHg 68%
    22:00 +8°C° 0 mm 3 mps 750 mmHg 67%
    23:00 +7°C° 0 mm 3 mps 750 mmHg 66%

    2 June, Tuesday

    Time Temperature Precipitation Wind Pressure Humidity
    00:00 +5°C° 0 mm 3 mps 750 mmHg 69%
    01:00 +4°C° 0 mm 3 mps 750 mmHg 71%
    02:00 +4°C° 0 mm 3 mps 750 mmHg 74%
    03:00 +4°C° 0 mm 3 mps 750 mmHg 74%
    04:00 +5°C° 0 mm 3 mps 750 mmHg 74%
    05:00 +5°C° 0 mm 3 mps 750 mmHg 75%
    06:00 +7°C° 0 mm 4 mps 750 mmHg 69%
    07:00 +10°C° 0 mm 4 mps 750 mmHg 63%
    08:00 +12°C° 0 mm 5 mps 750 mmHg 57%
    09:00 +13°C° 0 mm 5 mps 750 mmHg 54%
    10:00 +14°C° 0 mm 5 mps 749 mmHg 51%
    11:00 +16°C° 0 mm 5 mps 749 mmHg 47%
    12:00 +16°C° 0 mm 5 mps 749 mmHg 46%
    13:00 +17°C° 0 mm 5 mps 748 mmHg 45%
    14:00 +17°C° 0 mm 5 mps 748 mmHg 44%
    15:00 +17°C° 0 mm 5 mps 748 mmHg 44%
    16:00 +17°C° 0 mm 5 mps 747 mmHg 45%
    17:00 +18°C° 0 mm 4 mps 747 mmHg 46%
    18:00 +15°C° 0 mm 4 mps 747 mmHg 53%
    19:00 +14°C° 0 mm 3 mps 747 mmHg 60%
    20:00 +12°C° 0 mm 3 mps 747 mmHg 67%
    21:00 +11°C° 0 mm 3 mps 747 mmHg 70%
    22:00 +10°C° 0 mm 3 mps 747 mmHg 73%
    23:00 +9°C° 0 mm 3 mps 747 mmHg 77%

    3 June, Wednesday

    Time Temperature Precipitation Wind Pressure Humidity
    00:00 +8°C° 0 mm 3 mps 747 mmHg 80%
    01:00 +7°C° 0 mm 2 mps 746 mmHg 84%
    02:00 +7°C° 0 mm 2 mps 746 mmHg 88%
    03:00 +7°C° 0 mm 2 mps 746 mmHg 86%
    04:00 +7°C° 0 mm 3 mps 746 mmHg 84%
    05:00 +7°C° 0 mm 3 mps 746 mmHg 83%
    06:00 +9°C° 0 mm 3 mps 746 mmHg 75%
    07:00 +11°C° 0 mm 4 mps 746 mmHg 68%
    08:00 +13°C° 0 mm 4 mps 746 mmHg 60%
    09:00 +13°C° 0 mm 4 mps 746 mmHg 60%
    10:00 +14°C° 0 mm 4 mps 745 mmHg 59%
    11:00 +14°C° 0 mm 4 mps 745 mmHg 58%
    12:00 +14°C° 0.1 mm 4 mps 745 mmHg 65%
    13:00 +13°C° 0.1 mm 4 mps 745 mmHg 71%
    14:00 +12°C° 0.1 mm 4 mps 745 mmHg 77%
    15:00 +12°C° 0 mm 3 mps 745 mmHg 78%
    16:00 +12°C° 0 mm 3 mps 745 mmHg 78%
    17:00 +13°C° 0 mm 2 mps 745 mmHg 79%
    18:00 +13°C° 0 mm 2 mps 745 mmHg 79%
    19:00 +13°C° 0 mm 2 mps 745 mmHg 80%
    20:00 +13°C° 0 mm 2 mps 745 mmHg 81%
    21:00 +12°C° 0 mm 2 mps 745 mmHg 85%
    22:00 +10°C° 0 mm 2 mps 745 mmHg 89%
    23:00 +9°C° 0 mm 2 mps 745 mmHg 93%

    4 June, Thursday

    Time Temperature Precipitation Wind Pressure Humidity
    00:00 +9°C° 0 mm 2 mps 745 mmHg 95%
    01:00 +8°C° 0 mm 2 mps 745 mmHg 96%
    02:00 +8°C° 0 mm 2 mps 745 mmHg 98%
    03:00 +8°C° 0 mm 2 mps 745 mmHg 97%
    04:00 +8°C° 0 mm 2 mps 745 mmHg 97%
    05:00 +8°C° 0 mm 2 mps 745 mmHg 97%
    06:00 +10°C° 0 mm 2 mps 744 mmHg 92%
    07:00 +12°C° 0 mm 2 mps 744 mmHg 87%
    08:00 +14°C° 0 mm 2 mps 744 mmHg 81%
    09:00 +15°C° 0.1 mm 2 mps 744 mmHg 75%
    10:00 +17°C° 0.1 mm 3 mps 744 mmHg 68%
    11:00 +18°C° 0.1 mm 3 mps 744 mmHg 61%
    12:00 +17°C° 0.5 mm 3 mps 744 mmHg 69%
    13:00 +16°C° 0.5 mm 3 mps 743 mmHg 78%
    14:00 +14°C° 0.5 mm 3 mps 743 mmHg 87%
    15:00 +14°C° 0.1 mm 3 mps 743 mmHg 85%
    16:00 +14°C° 0.1 mm 3 mps 743 mmHg 83%
    17:00 +14°C° 0.1 mm 3 mps 743 mmHg 82%
    18:00 +15°C° 0 mm 2 mps 743 mmHg 85%
    19:00 +14°C° 0 mm 2 mps 742 mmHg 89%
    20:00 +13°C° 0 mm 2 mps 742 mmHg 92%
    21:00 +13°C° 0 mm 2 mps 742 mmHg 94%
    22:00 +12°C° 0 mm 2 mps 742 mmHg 96%
    23:00 +10°C° 0 mm 2 mps 742 mmHg 98%
    Show more